Location: Pella
(41.4080°N, 92.9160°W)
Time: 23:17:30
(UTC-05:00)

ISS - Visible Passes

Search period start: 30 April 2017 00:00
Search period end: 10 May 2017 00:00
Orbit: 401 x 409 km, 51.6° (Epoch: 01 May)

Date Brightness Start Highest point End Pass type
(mag) Time Alt. Az. Time Alt. Az. Time Alt. Az.
05 May -1.5 04:44:52 10° S 04:47:02 18° SE 04:49:18 10° E visible
06 May -3.8 05:27:51 10° SW 05:31:07 83° SE 05:34:23 10° NE visible
07 May -3.0 04:37:31 24° SSW 04:39:02 42° SE 04:42:10 10° ENE visible
08 May -1.9 03:47:24 22° ESE 03:47:24 22° ESE 03:49:38 10° E visible
08 May -3.1 05:20:11 10° WSW 05:23:21 44° NNW 05:26:30 10° NE visible
09 May -3.9 04:29:50 34° WSW 04:31:08 79° NW 04:34:25 10° NE visible
